Wind_Speed
9 8 7 6 6 6 5 4 4 4 6 7 8 9 10 10 11 13 14 6 6 3 7 8 12 9 15 20 15 6 4 3 4 5 5 5 3 3 10 12 4 11 18 28 36
9 8 7 6 6 5 5 5 4 4 5 6 7 8 9 11 12 17 9 10 10 4 7 11 13 12 13 24 16 3 4 8 7 7 5 5 5 5 3 5 9 17 25 34 35
9 9 8 8 6 5 4 4 5 5 6 6 6 7 8 9 11 13 7 12 9 6 9 13 17 15 17 22 15 6 5 5 10 9 6 7 9 6 12 0 11 22 34 36 36
10 9 9 8 8 6 5 4 4 5 6 6 6 7 6 5 3 2 1 9 11 8 9 14 11 3 5 6 9 3 8 9 11 9 5 8 12 7 13 8 22 31 32 33 34
11 10 9 9 9 7 6 6 5 5 6 6 6 6 6 7 14 7 2 4 11 10 11 14 14 13 4 9 9 2 4 12 14 10 9 13 9 6 8 13 24 26 28 28 31
11 10 10 9 9 8 7 6 6 6 6 6 6 7 6 6 4 5 1 4 12 12 13 14 15 12 16 6 3 6 4 6 16 14 14 10 6 10 6 19 21 24 23 23 31
12 11 9 9 9 8 8 7 6 6 6 6 7 7 11 15 4 5 3 5 9 13 14 15 12 15 27 10 14 17 6 1 12 11 6 15 0 7 11 19 21 18 20 21 20
12 11 10 9 8 8 7 7 6 6 6 6 7 8 10 2 13 13 9 5 2 11 13 10 10 24 6 16 14 5 4 2 3 9 10 10 8 8 16 16 17 22 18 20 25
14 12 11 10 9 8 7 6 6 6 6 6 5 6 10 13 17 15 13 11 6 6 11 12 18 7 9 3 6 4 5 6 3 9 7 4 6 8 13 9 14 16 12 24 33
15 14 12 11 10 8 7 5 5 7 7 7 8 7 7 4 13 14 13 12 16 6 10 14 8 1 4 5 5 5 5 4 5 5 6 7 5 9 8 12 9 8 12 33 40
16 15 13 11 9 8 6 5 3 4 10 11 5 9 13 5 8 11 15 13 17 12 5 16 2 7 12 9 12 9 13 9 3 7 7 9 4 8 16 12 31 16 3 21 40
19 16 13 11 9 8 7 6 4 2 9 14 22 25 22 16 5 14 13 11 6 6 3 5 7 13 10 12 9 12 11 6 4 3 5 4 1 5 10 17 35 30 20 21 34
19 17 12 9 7 8 9 7 8 11 4 9 17 19 17 10 14 21 19 14 4 5 6 8 13 5 6 15 10 7 4 5 4 3 5 6 5 5 4 12 27 23 21 18 23
19 15 9 6 4 2 4 5 10 3 4 6 7 8 14 6 7 22 24 19 4 10 6 7 21 13 14 9 13 6 1 8 6 4 4 5 5 5 5 14 13 24 25 22 23
18 13 8 7 5 5 7 9 6 3 3 4 5 3 11 10 1 13 26 24 7 8 5 12 7 7 7 10 5 10 9 5 3 1 1 2 3 6 6 8 17 24 27 27 27
15 8 3 7 10 3 3 5 5 5 4 3 8 8 6 11 13 3 27 23 14 4 3 9 22 5 7 6 5 4 5 5 4 4 4 4 2 6 5 9 7 19 26 29 26
8 3 2 7 8 10 4 4 5 2 5 4 5 8 7 7 5 7 7 7 6 2 6 8 8 8 6 5 6 4 6 3 3 5 6 3 3 8 11 10 11 12 29 35 32
5 2 2 11 11 10 4 4 3 5 6 3 5 6 9 6 7 6 6 6 7 4 3 4 9 5 5 11 10 4 8 5 4 4 8 4 6 6 11 14 11 17 20 18 30
4 5 2 12 9 7 2 3 6 4 5 5 6 5 5 4 4 6 9 9 9 11 8 4 8 5 7 5 10 7 3 8 4 2 2 3 4 7 9 6 10 13 17 23 29
5 6 1 7 16 6 4 5 5 3 1 6 5 3 1 4 5 7 2 5 5 9 7 7 4 3 6 4 1 9 3 1 3 1 3 4 5 6 7 6 9 7 4 11 28
5 3 3 13 12 2 2 5 6 12 2 2 1 2 2 4 5 2 7 4 5 3 12 5 5 18 1 2 9 3 4 4 5 4 2 1 6 4 11 2 4 9 5 22 27
4 2 8 13 2 1 2 5 6 17 6 6 3 5 4 3 5 4 3 3 12 6 2 5 6 2 6 6 3 6 5 5 5 6 3 4 5 11 12 8 6 12 9 6 23
7 2 13 10 1 3 8 6 4 11 5 4 4 2 2 2 3 3 7 13 26 3 3 2 1 2 9 7 7 5 2 4 4 3 2 4 5 6 7 9 12 5 9 8 20
5 3 2 13 8 3 6 5 7 13 9 9 5 9 8 7 2 4 9 6 16 16 7 1 4 7 7 7 4 4 1 1 5 4 2 4 5 3 5 8 7 19 10 12 14
8 4 6 3 5 9 3 4 6 8 10 21 8 10 3 6 8 5 6 6 14 14 14 4 5 2 5 7 3 5 5 2 3 6 5 6 5 4 6 11 16 21 30 25 15
5 7 9 8 13 8 7 5 5 6 6 4 4 8 8 4 2 4 4 3 5 8 8 6 3 6 6 5 6 3 8 6 2 2 4 4 5 8 5 8 17 17 25 22 12
14 6 3 6 9 5 5 6 8 6 4 8 3 3 5 1 4 5 11 14 11 4 2 2 2 4 5 4 4 4 4 3 3 4 7 6 9 6 7 11 23 26 32 24 23
Wind_Direction
5 4 2 355 348 338 332 319 311 293 284 279 279 282 284 281 278 272 257 241 212 278 272 291 292 299 309 294 289 248 77 150 205 172 240 275 147 73 77 92 158 194 170 163 161
358 354 354 350 346 340 332 330 323 312 296 286 283 283 281 282 279 265 249 242 231 218 277 294 287 296 305 292 297 137 129 205 185 179 229 187 117 116 95 74 47 124 155 163 170
354 347 345 344 338 333 331 328 325 320 310 303 296 290 284 291 298 283 248 229 223 219 263 273 281 291 298 285 258 199 189 177 182 196 240 140 116 139 129 36 151 129 150 162 163
356 349 341 336 330 327 318 313 312 311 313 309 301 291 279 269 221 62 216 199 199 213 244 268 284 296 275 300 298 149 249 155 155 189 171 155 144 138 185 203 161 159 165 171 172
355 352 344 337 329 320 309 300 295 298 305 307 305 296 278 253 238 190 37 202 205 216 234 262 283 294 246 304 328 196 281 149 162 164 168 146 174 182 204 170 168 167 172 182 181
348 347 344 338 330 317 302 293 286 288 296 301 300 291 268 260 266 208 248 261 216 217 235 248 258 304 292 295 313 292 255 125 170 181 173 154 193 158 174 169 180 191 187 174 190
334 336 338 335 329 316 301 288 278 275 283 289 290 280 263 242 209 201 230 349 236 218 231 241 275 293 300 325 336 335 304 211 180 178 170 143 22 214 203 174 181 195 201 205 200
331 325 325 324 321 314 297 280 268 263 268 270 282 284 260 174 220 209 202 214 244 222 238 249 289 298 295 323 327 339 322 204 261 168 159 131 257 226 191 191 203 210 223 228 205
332 324 315 310 310 314 300 274 258 251 251 249 265 279 267 186 214 203 209 219 242 219 238 269 287 276 310 33 346 10 257 222 274 196 144 131 261 252 187 214 229 245 283 194 194
333 325 313 306 302 308 304 273 251 249 240 240 238 293 254 262 219 207 204 231 220 210 247 265 281 25 356 73 248 274 313 257 204 224 184 187 239 75 96 340 296 305 302 179 193
333 325 314 302 291 291 288 271 243 242 245 229 247 240 291 360 187 183 189 219 214 216 195 261 105 246 242 218 245 261 273 266 238 221 163 189 152 168 139 90 291 257 128 208 191
331 324 312 296 283 283 278 238 182 51 292 270 256 260 267 262 267 201 191 207 154 199 214 350 260 244 248 260 250 264 259 290 272 321 62 38 308 268 224 198 220 220 191 198 210
327 321 311 293 280 277 270 256 232 289 289 274 238 243 245 227 225 207 192 194 164 208 204 195 243 251 241 283 278 268 222 281 189 88 128 136 319 253 238 247 243 258 222 207 206
324 318 307 282 273 210 83 70 177 188 50 273 188 243 234 218 242 198 194 190 201 214 226 231 256 248 260 254 259 259 346 108 103 108 215 172 243 254 206 244 244 250 241 232 207
322 316 295 223 166 157 53 30 138 137 20 151 176 233 196 184 235 184 201 194 204 230 118 253 298 267 258 239 187 239 111 129 147 149 87 276 88 274 120 244 244 246 240 234 233
320 311 262 206 195 150 117 115 174 42 278 239 161 167 116 221 241 19 183 198 231 234 239 236 274 216 231 270 221 233 83 49 56 46 347 237 143 287 187 219 255 234 250 241 233
330 314 238 163 151 164 149 86 55 138 307 221 177 151 172 208 250 157 169 200 189 87 275 312 276 281 231 276 328 116 58 340 341 11 228 60 27 245 272 240 228 207 225 234 233
356 341 180 163 143 153 131 58 118 236 273 12 147 139 177 179 236 177 140 204 266 162 94 215 315 202 226 193 201 173 148 164 219 225 291 125 206 236 241 238 251 235 237 218 223
356 355 70 175 165 154 143 71 213 247 305 14 24 90 317 264 191 153 203 211 217 175 177 189 264 291 249 181 146 260 200 191 161 20 230 224 283 333 299 344 336 301 283 227 206
350 336 5 144 155 148 77 235 246 252 335 33 62 102 351 293 208 161 194 244 245 187 192 243 280 235 318 64 272 167 184 108 17 243 278 320 310 239 282 280 321 5 120 162 181
357 354 99 144 149 148 156 243 280 290 44 77 255 308 323 338 345 262 214 254 193 208 140 215 161 273 213 199 210 266 287 40 123 128 191 204 259 291 211 226 16 30 71 148 163
22 27 166 163 81 189 215 219 288 294 27 33 54 42 63 333 347 341 294 216 267 156 153 244 133 290 252 294 228 117 136 122 109 291 112 166 302 20 28 30 356 85 64 168 185
355 355 177 195 51 325 303 296 323 7 358 29 358 82 106 18 358 344 352 336 358 12 190 265 73 18 349 355 6 92 47 116 113 104 136 104 284 329 61 45 347 347 141 91 175
21 29 76 215 317 16 339 310 327 354 22 351 50 22 10 352 20 14 352 341 354 9 352 40 143 157 190 211 220 317 129 166 114 102 191 179 223 144 341 314 320 315 303 166 164
24 38 15 321 325 334 276 309 350 8 16 24 22 21 323 29 358 12 358 329 335 16 2 51 253 122 224 216 249 221 270 283 124 185 138 214 221 206 197 231 209 256 262 292 188
44 10 347 302 310 323 360 349 43 358 17 25 56 347 52 87 139 304 352 3 262 324 356 356 311 5 313 351 41 172 244 256 202 173 116 207 231 176 181 188 192 236 246 257 265
27 19 333 309 344 23 349 346 29 21 341 5 338 7 347 283 352 308 300 280 250 244 323 296 46 22 266 323 350 348 196 218 235 181 165 198 215 186 187 169 183 215 232 234 232
Height
1534 1533 1532 1531 1530 1529 1529 1529 1528 1528 1527 1527 1526 1526 1526 1525 1525 1525 1524 1526 1526 1525 1525 1524 1524 1525 1525 1522 1523 1523 1532 1543 1537 1539 1530 1521 1521 1523 1525 1525 1526 1525 1525 1529 1536
1534 1533 1532 1531 1530 1529 1528 1527 1527 1526 1526 1525 1525 1525 1524 1524 1523 1521 1523 1523 1525 1525 1525 1524 1524 1526 1525 1521 1521 1520 1532 1529 1521 1523 1523 1519 1519 1522 1525 1525 1524 1522 1526 1531 1535
1533 1532 1531 1530 1529 1528 1527 1527 1526 1525 1524 1524 1523 1523 1523 1523 1523 1518 1519 1521 1523 1524 1524 1524 1524 1526 1524 1520 1514 1515 1523 1515 1517 1518 1518 1518 1519 1521 1523 1526 1524 1526 1529 1533 1535
1533 1531 1530 1529 1528 1527 1526 1526 1525 1525 1524 1523 1522 1522 1522 1523 1526 1517 1517 1519 1522 1524 1523 1522 1524 1526 1525 1520 1512 1514 1509 1511 1514 1516 1516 1517 1518 1521 1520 1518 1521 1525 1530 1533 1535
1532 1531 1529 1528 1527 1526 1525 1524 1524 1523 1523 1522 1522 1521 1521 1522 1516 1517 1517 1519 1521 1522 1522 1522 1523 1523 1522 1519 1513 1511 1509 1509 1512 1513 1514 1515 1515 1516 1518 1519 1523 1526 1530 1533 1535
1531 1529 1528 1527 1525 1524 1523 1523 1522 1522 1521 1521 1520 1520 1520 1520 1513 1516 1517 1518 1519 1521 1521 1521 1520 1522 1520 1516 1515 1511 1508 1508 1510 1510 1512 1513 1515 1516 1518 1520 1524 1527 1529 1532 1533
1529 1528 1527 1525 1524 1522 1521 1521 1521 1520 1520 1520 1519 1518 1518 1512 1512 1514 1516 1516 1517 1519 1520 1520 1522 1523 1520 1512 1510 1510 1512 1507 1506 1508 1510 1513 1519 1516 1516 1518 1521 1525 1527 1529 1532
1528 1526 1524 1523 1522 1521 1519 1519 1519 1518 1519 1518 1518 1517 1512 1509 1511 1512 1514 1516 1517 1519 1519 1520 1522 1522 1518 1515 1512 1515 1512 1521 1507 1505 1508 1512 1526 1510 1513 1515 1518 1521 1525 1526 1529
1525 1524 1522 1521 1519 1518 1517 1517 1517 1517 1517 1517 1518 1517 1508 1506 1506 1509 1512 1514 1517 1518 1519 1520 1522 1519 1518 1522 1529 1521 1533 1521 1511 1504 1506 1511 1518 1508 1515 1518 1517 1518 1520 1520 1524
1523 1521 1519 1518 1517 1516 1515 1515 1515 1515 1515 1516 1516 1519 1507 1504 1504 1507 1511 1513 1516 1517 1519 1519 1519 1520 1522 1532 1550 1534 1526 1512 1515 1503 1504 1509 1511 1511 1515 1524 1519 1517 1516 1516 1521
1521 1518 1517 1515 1514 1514 1515 1515 1517 1517 1513 1507 1506 1504 1503 1504 1505 1507 1509 1512 1514 1517 1520 1516 1525 1532 1520 1520 1516 1519 1519 1518 1501 1495 1501 1506 1512 1508 1510 1513 1520 1510 1511 1517 1514
1518 1515 1513 1512 1511 1511 1512 1512 1511 1513 1508 1502 1501 1501 1501 1505 1506 1506 1508 1512 1512 1518 1515 1522 1529 1512 1510 1510 1515 1515 1515 1512 1501 1495 1504 1515 1518 1511 1507 1494 1498 1498 1500 1508 1512
1514 1512 1510 1509 1509 1509 1508 1509 1511 1511 1509 1496 1495 1496 1497 1501 1501 1502 1506 1508 1510 1515 1516 1526 1511 1504 1508 1505 1511 1511 1509 1508 1506 1501 1504 1512 1522 1510 1503 1503 1497 1499 1500 1502 1506
1511 1509 1507 1507 1510 1507 1507 1508 1508 1509 1519 1500 1492 1493 1494 1497 1499 1498 1501 1507 1510 1513 1513 1517 1501 1507 1506 1510 1503 1512 1493 1496 1501 1510 1528 1504 1540 1511 1506 1501 1497 1494 1495 1499 1503
1507 1505 1504 1505 1506 1506 1508 1508 1508 1510 1536 1490 1490 1489 1489 1494 1492 1494 1498 1503 1506 1505 1510 1513 1502 1504 1504 1498 1490 1503 1495 1498 1502 1510 1515 1514 1526 1507 1504 1506 1494 1488 1491 1494 1501
1503 1502 1502 1503 1504 1506 1505 1506 1509 1525 1533 1492 1484 1487 1490 1491 1490 1493 1496 1501 1500 1502 1502 1502 1495 1496 1493 1487 1486 1485 1499 1504 1514 1524 1530 1518 1519 1515 1510 1493 1480 1480 1481 1486 1494
1501 1501 1501 1502 1504 1504 1505 1507 1525 1536 1490 1489 1488 1486 1490 1492 1491 1493 1498 1502 1508 1516 1519 1501 1495 1486 1486 1491 1485 1488 1512 1540 1536 1550 1546 1520 1524 1513 1483 1477 1474 1472 1473 1481 1486
1501 1500 1500 1502 1503 1505 1506 1510 1528 1503 1494 1479 1481 1486 1494 1489 1490 1491 1498 1506 1498 1500 1517 1523 1522 1486 1474 1482 1492 1494 1509 1537 1545 1553 1528 1522 1526 1492 1465 1467 1468 1467 1472 1477 1481
1502 1502 1501 1502 1504 1505 1507 1525 1518 1499 1486 1484 1484 1494 1499 1488 1487 1492 1498 1499 1491 1494 1512 1516 1508 1475 1473 1469 1477 1492 1505 1495 1514 1521 1526 1517 1497 1478 1471 1468 1470 1465 1465 1473 1480
1503 1502 1501 1501 1503 1506 1509 1518 1503 1490 1484 1484 1500 1495 1501 1493 1493 1495 1495 1484 1486 1484 1486 1492 1513 1476 1472 1470 1473 1481 1479 1506 1521 1529 1530 1520 1513 1511 1483 1477 1475 1471 1467 1467 1471
1503 1502 1503 1503 1505 1506 1518 1511 1496 1487 1484 1487 1491 1493 1493 1495 1488 1491 1488 1479 1474 1475 1476 1483 1496 1485 1475 1482 1486 1486 1491 1496 1508 1519 1530 1536 1518 1487 1477 1479 1482 1475 1472 1467 1473
1503 1504 1504 1506 1508 1508 1511 1500 1490 1484 1483 1484 1485 1488 1493 1493 1493 1490 1488 1479 1471 1468 1477 1478 1493 1504 1490 1474 1469 1477 1486 1497 1523 1521 1522 1530 1518 1491 1487 1487 1482 1472 1476 1473 1475
1504 1504 1506 1507 1515 1513 1504 1497 1493 1489 1486 1485 1487 1487 1487 1492 1498 1490 1488 1479 1473 1470 1474 1473 1495 1512 1498 1492 1477 1483 1482 1485 1499 1510 1519 1535 1525 1488 1489 1488 1483 1475 1474 1476 1475
1508 1509 1507 1509 1507 1507 1507 1501 1497 1489 1487 1486 1488 1486 1489 1493 1491 1494 1492 1482 1480 1475 1472 1471 1488 1499 1517 1503 1491 1489 1484 1485 1493 1516 1517 1515 1507 1487 1489 1481 1481 1480 1477 1470 1477
1512 1517 1519 1519 1509 1509 1506 1501 1500 1501 1495 1493 1493 1499 1497 1505 1502 1500 1494 1489 1481 1479 1479 1481 1491 1484 1488 1488 1481 1481 1481 1480 1489 1491 1506 1500 1494 1487 1487 1480 1475 1476 1476 1478 1477
1518 1520 1518 1516 1513 1509 1506 1506 1503 1501 1500 1503 1506 1502 1500 1505 1504 1506 1500 1497 1495 1483 1487 1484 1494 1490 1489 1481 1483 1484 1479 1477 1479 1485 1488 1489 1488 1475 1476 1471 1473 1474 1474 1478 1484
1523 1522 1522 1517 1515 1513 1514 1510 1508 1502 1501 1502 1501 1501 1501 1499 1497 1495 1494 1492 1490 1492 1492 1494 1496 1502 1506 1488 1485 1495 1476 1475 1474 1478 1480 1491 1475 1466 1475 1469 1467 1467 1469 1473 1474